[[{"header":{"parameterUnit":"m.s-1","parameterCategory":2,"la1":30.2991,"la2":30.254,"lo1":-89.0895,"lo2":-89.0444,"dy":0.0017,"dx":0.0017,"nx":28,"ny":28,"refTime":"2025-12-17T03:00:00:Z","depth":"0","parameterNumber":2,"parameterNumberName":"U-component_of_CURRENTS"},"data":[0,0,0,0,0,0,0,0,0,0,0,0,0,0,0,0,0,0,0,0,0,0,0,0,0,0,0,0,0,0,0,0,0,0,0,0,0,0,0,0,0,0,0,0,0,0,0,0,0,0,0,0,0,0,0,0,0,0,0.2555,0.2555,0,0.2574,0.2574,0.2574,0.257,0.2569,0.2569,0.2569,0.2523,0.2522,0.2521,0,0,0,0,0,0,0,0,0,0,0,0,0,0.2527,0.2528,0.2555,0.2555,0.2556,0.2574,0.2574,0.2575,0.257,0.2569,0.2569,0.2569,0.2523,0.2522,0.2521,0,0,0,0,0,0,0,0,0,0,0,0,0,0.2541,0.2528,0.2555,0.2556,0.2557,0.2574,0.2574,0.2575,0.257,0.2569,0.2569,0.2569,0.2523,0.2522,0.2521,0.2519,0,0,0.2516,0.2515,0,0,0,0,0,0,0,0,0.254,0.2542,0.2556,0.2556,0.2557,0.257,0.2548,0.2553,0.257,0.2563,0.2569,0.2568,0.2534,0.2532,0.2535,0.2517,0.2515,0.2516,0.2515,0.2514,0.2514,0,0,0,0,0,0,0,0.2539,0.2541,0.2561,0.2556,0.2557,0.2561,0.2562,0.2549,0.2548,0.2564,0.2564,0.2568,0.2533,0.2536,0.2534,0.2514,0.2516,0.2515,0.2514,0.2513,0.2525,0.2526,0,0,0,0,0,0,0.2539,0.254,0.256,0.2562,0.2549,0.2562,0.2563,0.2565,0.255,0.2548,0.2569,0.2568,0.2539,0.2535,0.2532,0.2559,0.2514,0.2513,0.2512,0.2524,0.2525,0.2526,0,0,0,0,0,0,0.2539,0.2541,0.256,0.2553,0.2555,0.2563,0.2565,0.2566,0.2571,0.2554,0.2551,0.2574,0.2539,0.2534,0.2531,0.2556,0.2512,0.2511,0.2522,0.2524,0.2526,0.2593,0,0,0,0,0,0,0.2538,0.254,0.2541,0.2553,0.2556,0.2573,0.2566,0.2567,0.2575,0.2575,0.2557,0.2553,0.2538,0.2534,0.253,0.2553,0.251,0.2521,0.2523,0.2525,0.259,0.2597,0.2604,0,0,0,0,0,0.2537,0.2534,0.2541,0.2543,0.2557,0.2574,0.2576,0.2579,0.2576,0.2581,0.2575,0.2553,0.2545,0.2533,0.2528,0.2552,0.252,0.2522,0.2525,0.2587,0.2596,0.2604,0,0,0,0,0,0,0.2505,0.2534,0.2541,0.2543,0.2562,0.2574,0.2577,0.2583,0.2584,0.2582,0.2563,0.2559,0.2567,0.255,0.2537,0.2563,0.2531,0.2533,0.258,0.2588,0.2595,0.2602,0.2509,0,0,0,0,0,0.2504,0.2521,0.2542,0.2545,0.2554,0.2568,0.2575,0.2584,0.2588,0.2588,0.2576,0.257,0.2576,0.2573,0.2567,0.2576,0.2581,0.259,0.2597,0.2603,0.2607,0.2646,0.2657,0.2535,0.2535,0.2535,0,0,0.2492,0.2511,0.2518,0.2542,0.2554,0.2578,0.2571,0.2587,0.2609,0.2581,0.2594,0.259,0.2583,0.26,0.2602,0.2587,0.2643,0.2606,0.2612,0.2612,0.265,0.2662,0.2673,0.2537,0.2537,0.2536,0,0,0.2485,0.2494,0.2512,0.2536,0.2567,0.2581,0.2588,0.2607,0.2615,0.2631,0.2626,0.2638,0.2629,0.2642,0.2645,0.2686,0.2679,0.2685,0.2727,0.2766,0.2777,0.2786,0.282,0.2832,0.269,0.269,0.2691,0,0.247,0.2494,0.2517,0.2546,0.2565,0.2585,0.2608,0.2628,0.2643,0.2654,0.264,0.2664,0.2653,0.2695,0.2714,0.2703,0.2723,0.2696,0.2777,0.2786,0.2794,0.2827,0.2839,0.2694,0.2694,0.2693,0.2693,0,0.2487,0.2508,0.2518,0.2568,0.2592,0.2612,0.2649,0.2667,0.2676,0.2696,0.2728,0.2728,0.2743,0.2751,0.2744,0.2805,0.2801,0.2782,0.2757,0.2811,0.2841,0.2853,0.2699,0.2698,0.2697,0.2696,0,0,0.2444,0.2517,0.2519,0.2546,0.2605,0.2623,0.2668,0.2708,0.2735,0.2757,0.2795,0.2818,0.2823,0.2828,0.2832,0.2868,0.2947,0.2856,0.2856,0.2893,0.3041,0.3032,0.3043,0.2949,0.2951,0.2953,0.3043,0,0.2446,0.2499,0.2537,0.2581,0.2608,0.2651,0.2693,0.2738,0.2764,0.2805,0.2836,0.2868,0.2855,0.287,0.2909,0.2941,0.2979,0.2924,0.298,0.2982,0.2969,0.3056,0.2997,0.3073,0.3054,0.3056,0.3057,0,0.2445,0.2484,0.2526,0.2595,0.261,0.2642,0.2703,0.2747,0.282,0.2842,0.2891,0.2914,0.2987,0.2955,0.3051,0.3021,0.3036,0.3053,0.3057,0.303,0.2994,0.3013,0.3094,0.3073,0.3075,0.3073,0.3072,0,0.24,0.247,0.2499,0.2524,0.2609,0.2631,0.2678,0.2751,0.2784,0.2872,0.29,0.2986,0.3026,0.308,0.3119,0.3096,0.3215,0.3181,0.3185,0.3184,0.3134,0.3125,0.3201,0.3236,0.3236,0.3236,0.3235,0,0.2383,0.2404,0.2479,0.2496,0.2529,0.2609,0.2647,0.2704,0.2789,0.2836,0.2916,0.2969,0.3059,0.313,0.3159,0.3224,0.3249,0.3216,0.3218,0.3156,0.3149,0.3125,0.309,0.3239,0.3238,0.3238,0.3237,0,0.2323,0.2375,0.2405,0.2484,0.2504,0.2529,0.261,0.2645,0.274,0.2806,0.284,0.2974,0.309,0.3165,0.3263,0.3268,0.3259,0.3328,0.3252,0.3243,0.3222,0.3192,0.3111,0.2992,0.3368,0.3368,0.3369,0,0.2298,0.231,0.2367,0.2378,0.2407,0.2456,0.249,0.2596,0.2644,0.2801,0.2837,0.2979,0.3071,0.3235,0.33,0.3381,0.3267,0.3337,0.3275,0.3242,0.3209,0.3059,0.2951,0.3241,0.324,0.324,0.3239,0,0.2243,0.2256,0.228,0.2304,0.2329,0.2356,0.2425,0.245,0.259,0.2664,0.279,0.2887,0.3086,0.3182,0.3302,0.3331,0.3214,0.3327,0.3316,0.3147,0.2964,0.2842,0.3158,0.3234,0.3235,0.3235,0.3236,0.3236,0.2186,0.2179,0.2207,0.2221,0.2244,0.2258,0.2253,0.2348,0.2414,0.2523,0.2684,0.2808,0.3048,0.3238,0.3242,0.3278,0.318,0.3229,0.3206,0.3067,0.2911,0.322,0.3277,0.3278,0.3278,0.3279,0.3279,0,0.2115,0.2121,0.213,0.2134,0.2118,0.2165,0.2206,0.2196,0.2241,0.2409,0.2519,0.2775,0.2941,0.3106,0.3274,0.3201,0.3007,0.3126,0.2919,0.2822,0.3152,0.311,0.3104,0.3104,0.3104,0.3104,0.3104,0.3104,0.208,0.2059,0.2062,0.2007,0.2005,0.1954,0.1951,0.1964,0.2059,0.2185,0.2338,0.2511,0.2904,0.3244,0.3293,0.3188,0.2925,0.2823,0.2742,0.304,0.3048,0.3055,0.301,0.2983,0.2983,0.2306,0.2301,0.2298]},{"header":{"parameterUnit":"m.s-1","parameterCategory":2,"la1":30.2991,"la2":30.254,"lo1":-89.0895,"lo2":-89.0444,"dy":0.0017,"dx":0.0017,"nx":28,"ny":28,"refTime":"2025-12-17T03:00:00:Z","depth":"0","parameterNumber":3,"parameterNumberName":"V-component_of_CURRENTS"},"data":[0,0,0,0,0,0,0,0,0,0,0,0,0,0,0,0,0,0,0,0,0,0,0,0,0,0,0,0,0,0,0,0,0,0,0,0,0,0,0,0,0,0,0,0,0,0,0,0,0,0,0,0,0,0,0,0,0,0,-0.0114,-0.0115,0,-0.0196,-0.0198,-0.0199,-0.0248,-0.0248,-0.0248,-0.0248,-0.0342,-0.0344,-0.0346,0,0,0,0,0,0,0,0,0,0,0,0,0,-0.0049,-0.005,-0.0114,-0.0115,-0.0116,-0.0196,-0.0198,-0.0199,-0.0248,-0.0248,-0.0248,-0.0248,-0.0341,-0.0344,-0.0347,0,0,0,0,0,0,0,0,0,0,0,0,0,-0.01,-0.005,-0.0114,-0.0149,-0.0153,-0.0196,-0.0198,-0.0199,-0.0248,-0.0248,-0.0248,-0.0248,-0.034,-0.0343,-0.0347,-0.0366,0,0,-0.0358,-0.036,0,0,0,0,0,0,0,0,-0.0097,-0.0103,-0.0143,-0.0147,-0.0151,-0.0211,-0.0209,-0.0255,-0.0248,-0.0213,-0.0248,-0.0248,-0.0298,-0.0305,-0.0322,-0.037,-0.0374,-0.0358,-0.036,-0.0362,-0.0363,0,0,0,0,0,0,0,-0.0094,-0.01,-0.0148,-0.0144,-0.0149,-0.0178,-0.0185,-0.0218,-0.0255,-0.0216,-0.022,-0.0226,-0.0301,-0.0318,-0.0324,-0.0376,-0.0358,-0.0361,-0.0364,-0.0365,-0.0437,-0.0437,0,0,0,0,0,0,-0.0078,-0.0096,-0.0146,-0.0151,-0.0123,-0.0178,-0.0186,-0.0193,-0.0254,-0.0264,-0.0226,-0.0228,-0.0312,-0.032,-0.0328,-0.0337,-0.0362,-0.0365,-0.0367,-0.0437,-0.0437,-0.0437,0,0,0,0,0,0,-0.0076,-0.0082,-0.0142,-0.0124,-0.0134,-0.0179,-0.0186,-0.0194,-0.0209,-0.0262,-0.0271,-0.0231,-0.0312,-0.0323,-0.035,-0.0342,-0.0367,-0.037,-0.0437,-0.0437,-0.0437,-0.0367,0,0,0,0,0,0,-0.0074,-0.0081,-0.0079,-0.0123,-0.0134,-0.0158,-0.0186,-0.0196,-0.0212,-0.0216,-0.0269,-0.0279,-0.0313,-0.0345,-0.0354,-0.0347,-0.0373,-0.0438,-0.0437,-0.0437,-0.0369,-0.0364,-0.0359,0,0,0,0,0,-0.0072,-0.0066,-0.0078,-0.0084,-0.013,-0.0157,-0.0166,-0.02,-0.0212,-0.0214,-0.025,-0.0277,-0.0348,-0.0347,-0.0358,-0.0352,-0.0438,-0.0437,-0.0437,-0.0372,-0.0365,-0.036,0,0,0,0,0,0,-0.0038,-0.0071,-0.0086,-0.0091,-0.0117,-0.0165,-0.017,-0.0193,-0.0224,-0.0225,-0.0275,-0.0287,-0.0309,-0.034,-0.0338,-0.0372,-0.0397,-0.0399,-0.0344,-0.0338,-0.0333,-0.0314,-0.0376,0,0,0,0,0,-0.0028,-0.0031,-0.007,-0.0072,-0.0083,-0.0125,-0.0139,-0.016,-0.0194,-0.0208,-0.0245,-0.0283,-0.0316,-0.0333,-0.0367,-0.0386,-0.0414,-0.0389,-0.0384,-0.038,-0.0372,-0.041,-0.0407,-0.0435,-0.0435,-0.0435,0,0,-0.0016,-0.0034,-0.0036,-0.0065,-0.0089,-0.0095,-0.0134,-0.0148,-0.0152,-0.0213,-0.0228,-0.0268,-0.0317,-0.0338,-0.035,-0.0362,-0.0385,-0.0379,-0.0375,-0.0369,-0.0409,-0.0406,-0.0404,-0.0434,-0.0435,-0.0435,0,0,0.0013,-0.0007,0.0001,-0.0017,-0.0043,-0.0068,-0.0067,-0.0109,-0.0126,-0.0147,-0.019,-0.0221,-0.0273,-0.0304,-0.0327,-0.0316,-0.0358,-0.0328,-0.0287,-0.0324,-0.0322,-0.0321,-0.0343,-0.0344,-0.0325,-0.0325,-0.0325,0,0.0032,0.0034,-0.0,0.0003,-0.0003,-0.005,-0.004,-0.0065,-0.0109,-0.0118,-0.014,-0.0212,-0.0255,-0.028,-0.0278,-0.0303,-0.0328,-0.0304,-0.0317,-0.0316,-0.0316,-0.0339,-0.0341,-0.0322,-0.0322,-0.0322,-0.0323,0,0.0064,0.0066,0.007,0.0061,0.0051,0.005,0.0016,0.0004,-0.0022,-0.0052,-0.0082,-0.0144,-0.0183,-0.0205,-0.024,-0.0257,-0.0276,-0.0306,-0.0328,-0.0309,-0.0335,-0.0338,-0.0317,-0.0318,-0.0319,-0.032,0,0,0.0107,0.0097,0.0098,0.0109,0.0082,0.0081,0.0077,0.006,0.0066,0.0013,0.0011,-0.0057,-0.0092,-0.012,-0.017,-0.0207,-0.0228,-0.025,-0.0253,-0.0264,-0.03,-0.031,-0.0315,-0.0262,-0.0262,-0.0263,-0.0315,0,0.0144,0.017,0.0151,0.018,0.0191,0.0156,0.0161,0.014,0.011,0.0097,0.0029,0.0005,-0.0059,-0.0074,-0.0121,-0.0199,-0.0235,-0.021,-0.0324,-0.0327,-0.0332,-0.0319,-0.0305,-0.0351,-0.0318,-0.0319,-0.032,0,0.0182,0.0195,0.0229,0.0247,0.025,0.0258,0.0262,0.0261,0.0224,0.0199,0.0156,0.0105,0.0049,-0.0011,-0.0129,-0.011,-0.0196,-0.0263,-0.0267,-0.0303,-0.0344,-0.0368,-0.0358,-0.0527,-0.0325,-0.0325,-0.0324,0,0.0234,0.0254,0.0286,0.0288,0.0295,0.0308,0.0312,0.0291,0.0305,0.0264,0.0268,0.0184,0.0155,0.0036,-0.0098,-0.0115,-0.0229,-0.0272,-0.0361,-0.0362,-0.0386,-0.0388,-0.0545,-0.0358,-0.0358,-0.0358,-0.0358,0,0.028,0.0309,0.0313,0.0331,0.0379,0.0364,0.0405,0.0392,0.0389,0.0419,0.0328,0.0335,0.0164,0.008,-0.0061,-0.0209,-0.0201,-0.0346,-0.0377,-0.036,-0.036,-0.0536,-0.065,-0.036,-0.0359,-0.0359,-0.0358,0,0.0327,0.0329,0.0372,0.0391,0.0404,0.0437,0.0473,0.0505,0.0488,0.0524,0.052,0.0452,0.0346,0.0175,-0.0008,-0.0146,-0.0407,-0.0357,-0.0316,-0.0341,-0.0583,-0.0693,-0.0909,-0.1005,-0.0461,-0.0462,-0.0462,0,0.0356,0.038,0.042,0.0451,0.0461,0.0504,0.0542,0.0549,0.059,0.0603,0.0636,0.0557,0.0522,0.0257,0.0,-0.0238,-0.0425,-0.0397,-0.0435,-0.059,-0.0736,-0.0827,-0.09,-0.0437,-0.0438,-0.0438,-0.0438,0,0.0409,0.0417,0.0449,0.0513,0.0559,0.0616,0.0672,0.0725,0.0745,0.0783,0.0829,0.081,0.0571,0.0357,0.0025,-0.0166,-0.0537,-0.0408,-0.0587,-0.0744,-0.0837,-0.0944,-0.0404,-0.044,-0.0439,-0.0439,-0.0439,-0.0439,0.0449,0.0477,0.0516,0.058,0.0638,0.072,0.0782,0.0858,0.0945,0.1026,0.0994,0.101,0.0685,0.0246,-0.0043,-0.054,-0.0572,-0.0683,-0.0805,-0.0883,-0.0981,-0.0434,-0.0495,-0.0495,-0.0495,-0.0496,-0.0496,0,0.0495,0.0525,0.0584,0.0657,0.0728,0.075,0.0868,0.0942,0.1066,0.1158,0.1206,0.1085,0.0657,0.0201,-0.0444,-0.0831,-0.1014,-0.1064,-0.1199,-0.1256,-0.0776,-0.0778,-0.0878,-0.0878,-0.0878,-0.0878,-0.0878,-0.0878,0.0521,0.0579,0.0604,0.072,0.0774,0.0883,0.0957,0.1071,0.1174,0.1303,0.1354,0.1372,0.1061,-0.015,-0.0989,-0.1215,-0.1536,-0.1614,-0.1773,-0.1447,-0.142,-0.1395,-0.1423,-0.1657,-0.1658,-0.219,-0.2196,-0.22]}],[{"header":{"parameterUnit":"m.s-1","parameterCategory":2,"la1":30.2991,"la2":30.254,"lo1":-89.0895,"lo2":-89.0444,"dy":0.0017,"dx":0.0017,"nx":28,"ny":28,"refTime":"2025-12-17T03:00:00:Z","depth":"2","parameterNumber":2,"parameterNumberName":"U-component_of_CURRENTS"},"data":[0,0,0,0,0,0,0,0,0,0,0,0,0,0,0,0,0,0,0,0,0,0,0,0,0,0,0,0,0,0,0,0,0,0,0,0,0,0,0,0,0,0,0,0,0,0,0,0,0,0,0,0,0,0,0,0,0,0,0.2463,0.2464,0,0.2478,0.2478,0.2477,0.2467,0.2467,0.2467,0.2467,0.2486,0.2486,0.2487,0,0,0,0,0,0,0,0,0,0,0,0,0,0.2398,0.2399,0.2463,0.2464,0.2465,0.2478,0.2478,0.2477,0.2467,0.2467,0.2467,0.2468,0.2486,0.2486,0.2487,0,0,0,0,0,0,0,0,0,0,0,0,0,0.2414,0.2399,0.2463,0.2466,0.2467,0.2478,0.2478,0.2477,0.2467,0.2467,0.2467,0.2468,0.2486,0.2486,0.2487,0.2485,0,0,0.2488,0.2488,0,0,0,0,0,0,0,0,0.2413,0.2416,0.2465,0.2466,0.2467,0.2477,0.2462,0.2482,0.2467,0.246,0.2467,0.2468,0.2488,0.2488,0.248,0.2485,0.2486,0.2488,0.2489,0.2489,0.2489,0,0,0,0,0,0,0,0.2412,0.2415,0.2462,0.2466,0.2468,0.2458,0.246,0.2465,0.2467,0.246,0.2461,0.2474,0.2488,0.248,0.2481,0.2486,0.2488,0.2489,0.2489,0.2489,0.2546,0.2548,0,0,0,0,0,0,0.2426,0.2414,0.2462,0.2463,0.2448,0.246,0.2462,0.2468,0.2467,0.2469,0.2474,0.2474,0.2479,0.248,0.2482,0.2534,0.2489,0.2489,0.249,0.2545,0.2547,0.2548,0,0,0,0,0,0,0.2424,0.243,0.2461,0.2445,0.2449,0.2462,0.2468,0.2468,0.2471,0.2478,0.2479,0.2479,0.2479,0.2481,0.2508,0.2532,0.2489,0.249,0.2544,0.2546,0.2547,0.2603,0,0,0,0,0,0,0.2422,0.2429,0.2431,0.2446,0.2451,0.2483,0.2469,0.2469,0.2481,0.2481,0.2482,0.2484,0.2479,0.2507,0.2508,0.2532,0.249,0.2542,0.2545,0.2547,0.26,0.2606,0.2612,0,0,0,0,0,0.2419,0.2435,0.2431,0.2437,0.2456,0.2485,0.2486,0.2491,0.2482,0.2491,0.2497,0.2484,0.2522,0.2509,0.251,0.2534,0.2541,0.2544,0.2547,0.2597,0.2605,0.2612,0,0,0,0,0,0,0.2414,0.2436,0.2432,0.2454,0.2473,0.2486,0.2501,0.2497,0.2504,0.2505,0.25,0.2502,0.2535,0.2527,0.2512,0.2558,0.2529,0.2532,0.2567,0.2575,0.2581,0.2581,0.2491,0,0,0,0,0,0.2413,0.2426,0.2448,0.2466,0.2479,0.2486,0.2496,0.25,0.2514,0.2516,0.2523,0.253,0.2544,0.2554,0.2564,0.2588,0.2595,0.2604,0.2611,0.2616,0.2617,0.2658,0.2669,0.2557,0.2557,0.2557,0,0,0.2413,0.2432,0.2437,0.2465,0.2479,0.2495,0.2492,0.2518,0.253,0.2519,0.2543,0.2554,0.2556,0.2587,0.2601,0.2586,0.2654,0.262,0.2624,0.2622,0.2662,0.2673,0.2683,0.2559,0.2559,0.2558,0,0,0.2426,0.2443,0.2452,0.2473,0.2504,0.2513,0.2523,0.2545,0.2556,0.2581,0.258,0.261,0.2624,0.2639,0.2644,0.269,0.2686,0.2693,0.2725,0.2766,0.2776,0.2784,0.2816,0.2827,0.2696,0.2696,0.2696,0,0.242,0.2441,0.2462,0.2482,0.2504,0.2522,0.2538,0.2553,0.2581,0.2603,0.2599,0.2645,0.2649,0.2689,0.2707,0.2706,0.2724,0.2696,0.2775,0.2784,0.2791,0.2822,0.2833,0.2699,0.2699,0.2698,0.2698,0,0.2435,0.2455,0.2475,0.2498,0.2521,0.255,0.2578,0.2608,0.2624,0.2639,0.2693,0.2708,0.2737,0.2746,0.2738,0.2797,0.2792,0.278,0.2756,0.2806,0.2835,0.2845,0.2703,0.2702,0.2701,0.2701,0,0,0.241,0.2468,0.2474,0.2491,0.2536,0.2557,0.2599,0.2643,0.2677,0.2709,0.2756,0.2788,0.2805,0.2812,0.2818,0.2851,0.2924,0.2841,0.2841,0.2872,0.3016,0.3008,0.3019,0.2929,0.2931,0.2933,0.3018,0,0.2412,0.245,0.248,0.2518,0.254,0.2585,0.2622,0.2666,0.2709,0.2762,0.2796,0.2838,0.2827,0.2852,0.2886,0.2909,0.2953,0.2902,0.2962,0.2964,0.2951,0.3031,0.2766,0.2819,0.3028,0.3029,0.3031,0,0.2407,0.2439,0.2472,0.2536,0.2552,0.2577,0.2655,0.2688,0.2767,0.2808,0.2864,0.2891,0.2947,0.293,0.3007,0.2977,0.3006,0.3022,0.3026,0.3004,0.2976,0.2801,0.283,0.3048,0.3047,0.3046,0.3044,0,0.2372,0.2433,0.2462,0.2483,0.2553,0.2587,0.2624,0.2702,0.2741,0.2837,0.2882,0.2951,0.2992,0.3037,0.3078,0.3051,0.3162,0.3127,0.3151,0.315,0.2928,0.2905,0.3199,0.3199,0.3199,0.3199,0.3199,0,0.2361,0.2384,0.2452,0.2468,0.2508,0.2566,0.2618,0.2678,0.2763,0.2812,0.2894,0.2954,0.3024,0.3092,0.3113,0.3174,0.3197,0.3177,0.3182,0.2942,0.292,0.3112,0.31,0.3202,0.3201,0.3201,0.32,0,0.2309,0.2357,0.2387,0.2465,0.2486,0.251,0.2589,0.2632,0.2728,0.2798,0.2831,0.2969,0.3068,0.3136,0.3224,0.3224,0.3275,0.3294,0.301,0.2982,0.3224,0.3214,0.3323,0.3324,0.3324,0.3325,0.3325,0,0.2279,0.2296,0.236,0.2374,0.2408,0.2455,0.2487,0.2591,0.2644,0.2799,0.2834,0.2977,0.3065,0.3206,0.3229,0.3288,0.3327,0.3085,0.2991,0.3248,0.3242,0.3231,0.3222,0.2712,0.2707,0.2704,0.2701,0,0.2226,0.2255,0.2283,0.231,0.2342,0.2371,0.2437,0.247,0.2598,0.2676,0.2797,0.2885,0.3045,0.3007,0.3113,0.3102,0.305,0.3014,0.3353,0.274,0.2684,0.2674,0.2682,0.2667,0.267,0.2672,0.2674,0.2676,0.218,0.2182,0.2222,0.2239,0.2267,0.2281,0.2279,0.236,0.242,0.2498,0.2661,0.2705,0.2788,0.2822,0.2777,0.2747,0.2958,0.2813,0.2819,0.283,0.2763,0.2713,0.2687,0.2691,0.2694,0.2696,0.2699,0,0.212,0.2134,0.2148,0.2159,0.2144,0.2193,0.2235,0.221,0.2233,0.2333,0.2408,0.2289,0.2302,0.2378,0.2297,0.2353,0.2265,0.2248,0.2087,0.2126,0.2159,0.2049,0.1788,0.1785,0.1782,0.1779,0,0,0.2091,0.2074,0.2077,0.2028,0.2035,0.1982,0.198,0.1966,0.2006,0.1986,0.199,0.2156,0.2304,0.1991,0.199,0.1868,0.1962,0.1794,0.2531,0.2378,0.2406,0.2507,0.2388,0,0,0,0,0]},{"header":{"parameterUnit":"m.s-1","parameterCategory":2,"la1":30.2991,"la2":30.254,"lo1":-89.0895,"lo2":-89.0444,"dy":0.0017,"dx":0.0017,"nx":28,"ny":28,"refTime":"2025-12-17T03:00:00:Z","depth":"2","parameterNumber":3,"parameterNumberName":"V-component_of_CURRENTS"},"data":[0,0,0,0,0,0,0,0,0,0,0,0,0,0,0,0,0,0,0,0,0,0,0,0,0,0,0,0,0,0,0,0,0,0,0,0,0,0,0,0,0,0,0,0,0,0,0,0,0,0,0,0,0,0,0,0,0,0,-0.0125,-0.0126,0,-0.0197,-0.0198,-0.0199,-0.0243,-0.0243,-0.0243,-0.0243,-0.0337,-0.0339,-0.0342,0,0,0,0,0,0,0,0,0,0,0,0,0,-0.0071,-0.0072,-0.0125,-0.0126,-0.0127,-0.0197,-0.0198,-0.0199,-0.0243,-0.0243,-0.0243,-0.0243,-0.0336,-0.0339,-0.0342,0,0,0,0,0,0,0,0,0,0,0,0,0,-0.0115,-0.0072,-0.0125,-0.0156,-0.0159,-0.0197,-0.0198,-0.0199,-0.0242,-0.0243,-0.0243,-0.0243,-0.0335,-0.0339,-0.0342,-0.0361,0,0,-0.0353,-0.0355,0,0,0,0,0,0,0,0,-0.0113,-0.0117,-0.0151,-0.0154,-0.0158,-0.021,-0.0213,-0.0254,-0.0242,-0.0212,-0.0243,-0.0243,-0.0296,-0.0302,-0.0317,-0.0366,-0.037,-0.0354,-0.0356,-0.0357,-0.0358,0,0,0,0,0,0,0,-0.0109,-0.0115,-0.0155,-0.0152,-0.0156,-0.0182,-0.0188,-0.0221,-0.0253,-0.0215,-0.0218,-0.0224,-0.0298,-0.0313,-0.032,-0.0371,-0.0353,-0.0357,-0.0359,-0.036,-0.0434,-0.0434,0,0,0,0,0,0,-0.0096,-0.0111,-0.0153,-0.0157,-0.0134,-0.0182,-0.0189,-0.0194,-0.0253,-0.0261,-0.0224,-0.0226,-0.0307,-0.0315,-0.0323,-0.0333,-0.0357,-0.0361,-0.0363,-0.0434,-0.0434,-0.0434,0,0,0,0,0,0,-0.0094,-0.0099,-0.015,-0.0135,-0.0143,-0.0183,-0.0188,-0.0195,-0.0209,-0.0259,-0.0268,-0.023,-0.0308,-0.0318,-0.0346,-0.0338,-0.0362,-0.0365,-0.0434,-0.0434,-0.0434,-0.0364,0,0,0,0,0,0,-0.0092,-0.0098,-0.0097,-0.0134,-0.0143,-0.0164,-0.0188,-0.0197,-0.0212,-0.0216,-0.0267,-0.0276,-0.0309,-0.034,-0.0349,-0.0343,-0.0368,-0.0435,-0.0434,-0.0434,-0.0366,-0.0361,-0.0357,0,0,0,0,0,-0.009,-0.0083,-0.0097,-0.0102,-0.0141,-0.0163,-0.017,-0.02,-0.0212,-0.0214,-0.0248,-0.0275,-0.0344,-0.0343,-0.0354,-0.0348,-0.0435,-0.0434,-0.0434,-0.0369,-0.0362,-0.0357,0,0,0,0,0,0,-0.0057,-0.0088,-0.0103,-0.0106,-0.013,-0.017,-0.0173,-0.0195,-0.0224,-0.0226,-0.0274,-0.0285,-0.0307,-0.0338,-0.0335,-0.0369,-0.0394,-0.0395,-0.034,-0.0335,-0.033,-0.0311,-0.0371,0,0,0,0,0,-0.005,-0.0053,-0.0088,-0.0089,-0.0098,-0.0136,-0.0149,-0.0168,-0.0198,-0.0211,-0.0246,-0.0283,-0.0314,-0.0331,-0.0364,-0.0383,-0.0411,-0.0387,-0.0382,-0.0378,-0.037,-0.0406,-0.0404,-0.0432,-0.0432,-0.0432,0,0,-0.0038,-0.0054,-0.0058,-0.0083,-0.0103,-0.0108,-0.0144,-0.0156,-0.016,-0.0217,-0.023,-0.0268,-0.0316,-0.0335,-0.0348,-0.0359,-0.0383,-0.0377,-0.0373,-0.0368,-0.0406,-0.0403,-0.04,-0.0432,-0.0432,-0.0432,0,0,-0.0011,-0.0029,-0.0023,-0.0038,-0.0063,-0.0085,-0.0085,-0.0121,-0.0136,-0.0157,-0.0196,-0.0225,-0.0275,-0.0303,-0.0325,-0.0315,-0.0357,-0.0328,-0.0288,-0.0323,-0.0321,-0.0319,-0.0343,-0.0344,-0.0325,-0.0325,-0.0325,0,0.0006,0.0007,-0.0024,-0.0021,-0.0025,-0.0068,-0.0059,-0.0082,-0.0122,-0.0128,-0.015,-0.0217,-0.0258,-0.028,-0.0277,-0.0302,-0.0327,-0.0304,-0.0315,-0.0314,-0.0314,-0.0339,-0.0341,-0.0321,-0.0322,-0.0322,-0.0322,0,0.0034,0.0036,0.0042,0.0032,0.0023,0.0025,-0.0006,-0.0016,-0.004,-0.0067,-0.0094,-0.0152,-0.0189,-0.0209,-0.0242,-0.0257,-0.0277,-0.0304,-0.0326,-0.0307,-0.0334,-0.0338,-0.0316,-0.0318,-0.0319,-0.0319,0,0,0.0076,0.0064,0.0067,0.0077,0.0054,0.0054,0.0052,0.0039,0.0047,-0.0004,-0.0003,-0.0066,-0.01,-0.0127,-0.0174,-0.0208,-0.0228,-0.0249,-0.0253,-0.0264,-0.0297,-0.0308,-0.0314,-0.0259,-0.0259,-0.026,-0.0315,0,0.011,0.0133,0.0116,0.0144,0.0156,0.0127,0.0133,0.0115,0.009,0.0078,0.0014,-0.0008,-0.0068,-0.0082,-0.0126,-0.0202,-0.0235,-0.021,-0.0322,-0.0325,-0.033,-0.0317,-0.0297,-0.0344,-0.0318,-0.0319,-0.0319,0,0.0147,0.0159,0.019,0.0209,0.0213,0.0222,0.0234,0.0231,0.0198,0.0178,0.0138,0.0088,0.0034,-0.0021,-0.0136,-0.0118,-0.0198,-0.0262,-0.0266,-0.0302,-0.0342,-0.0363,-0.0352,-0.0326,-0.0325,-0.0325,-0.0324,0,0.0197,0.0216,0.0248,0.0251,0.0259,0.0275,0.0276,0.0261,0.0277,0.0239,0.0247,0.0164,0.0136,0.0021,-0.0107,-0.0123,-0.0234,-0.0274,-0.0359,-0.0361,-0.0378,-0.038,-0.0354,-0.0354,-0.0354,-0.0354,-0.0354,0,0.0244,0.0272,0.0275,0.0294,0.0341,0.0325,0.0368,0.0357,0.0359,0.0389,0.0301,0.0312,0.0145,0.0063,-0.0074,-0.0217,-0.0209,-0.0345,-0.0375,-0.0353,-0.0352,-0.0367,-0.0368,-0.0356,-0.0355,-0.0355,-0.0355,0,0.0292,0.0293,0.0334,0.0354,0.0365,0.0396,0.0433,0.0468,0.0454,0.0492,0.0489,0.0426,0.0322,0.0155,-0.0022,-0.0157,-0.0304,-0.0359,-0.0313,-0.0337,-0.0418,-0.0415,-0.0461,-0.0462,-0.0463,-0.0464,-0.0464,0,0.0315,0.0341,0.038,0.0413,0.0424,0.0465,0.0503,0.051,0.0555,0.0571,0.0605,0.0528,0.0493,0.0232,-0.0017,-0.0251,-0.0289,-0.0394,-0.0429,-0.0404,-0.0429,-0.0424,-0.042,-0.0424,-0.0424,-0.0424,-0.0424,0,0.0365,0.0379,0.0414,0.0476,0.0524,0.058,0.0634,0.0691,0.0712,0.075,0.0795,0.0773,0.0538,0.0313,-0.0012,-0.0179,-0.0359,-0.0404,-0.0392,-0.0396,-0.0372,-0.0395,-0.0392,-0.0425,-0.0425,-0.0425,-0.0425,-0.0425,0.0404,0.0436,0.0484,0.0545,0.0606,0.0687,0.0748,0.0811,0.0893,0.0938,0.093,0.0878,0.0642,0.0222,-0.0044,-0.0351,-0.0348,-0.0467,-0.0465,-0.0463,-0.0446,-0.0424,-0.0482,-0.0483,-0.0483,-0.0483,-0.0483,0,0.0445,0.0486,0.055,0.0623,0.0694,0.0719,0.0836,0.0875,0.0971,0.0999,0.1021,0.0795,0.056,0.027,-0.0173,-0.0422,-0.0449,-0.0511,-0.0483,-0.048,-0.0478,-0.046,-0.0502,-0.0503,-0.0503,-0.0504,0,0,0.0472,0.0528,0.0556,0.0673,0.0738,0.0818,0.089,0.096,0.0993,0.0999,0.0971,0.0933,0.062,0.0305,-0.0021,-0.027,-0.033,-0.0328,-0.0289,-0.0216,-0.0211,-0.0429,-0.0396,0,0,0,0,0]}],[{"header":{"parameterUnit":"m.s-1","parameterCategory":2,"la1":30.2991,"la2":30.254,"lo1":-89.0895,"lo2":-89.0444,"dy":0.0017,"dx":0.0017,"nx":28,"ny":28,"refTime":"2025-12-17T03:00:00:Z","depth":"4","parameterNumber":2,"parameterNumberName":"U-component_of_CURRENTS"},"data":[0,0,0,0,0,0,0,0,0,0,0,0,0,0,0,0,0,0,0,0,0,0,0,0,0,0,0,0,0,0,0,0,0,0,0,0,0,0,0,0,0,0,0,0,0,0,0,0,0,0,0,0,0,0,0,0,0,0,0.1618,0.1619,0,0.1681,0.1681,0.1682,0.1735,0.1736,0.1737,0.1738,0.1818,0.182,0.1821,0,0,0,0,0,0,0,0,0,0,0,0,0,0.1533,0.1534,0.1618,0.1619,0.162,0.1681,0.1681,0.1682,0.1735,0.1736,0.1737,0.1738,0.1818,0.1819,0.1821,0,0,0,0,0,0,0,0,0,0,0,0,0,0.1578,0.1534,0.1618,0.1656,0.166,0.1681,0.1681,0.1682,0.1735,0.1736,0.1737,0.1739,0.1817,0.1819,0.1821,0.181,0,0,0.1828,0.1829,0,0,0,0,0,0,0,0,0.1575,0.158,0.1649,0.1653,0.1658,0.1704,0.1681,0.1726,0.1735,0.1704,0.1738,0.1739,0.1782,0.1787,0.1793,0.1813,0.1817,0.1828,0.1829,0.183,0.1831,0,0,0,0,0,0,0,0.1572,0.1578,0.1641,0.165,0.1656,0.1666,0.1673,0.1689,0.1734,0.1707,0.1711,0.1722,0.1785,0.179,0.1795,0.1818,0.1828,0.183,0.1831,0.1832,0.1947,0.1949,0,0,0,0,0,0,0.1568,0.1575,0.1639,0.1643,0.1621,0.1666,0.1675,0.1686,0.1734,0.1743,0.1721,0.1724,0.1786,0.1793,0.1798,0.1888,0.183,0.1832,0.1833,0.1945,0.1947,0.1949,0,0,0,0,0,0,0.1566,0.1573,0.1636,0.1612,0.1621,0.1667,0.1679,0.1686,0.1729,0.1744,0.1754,0.176,0.1788,0.1795,0.1847,0.1888,0.1833,0.1835,0.1943,0.1946,0.1948,0.2004,0,0,0,0,0,0,0.1563,0.1572,0.1595,0.1612,0.1623,0.1672,0.1678,0.1687,0.1733,0.1739,0.178,0.1787,0.1789,0.1844,0.1849,0.189,0.1836,0.1941,0.1944,0.1947,0.2,0.2008,0.2015,0,0,0,0,0,0.156,0.158,0.1596,0.1605,0.1647,0.1673,0.168,0.1714,0.1734,0.1757,0.1789,0.1788,0.187,0.1847,0.1853,0.1895,0.1939,0.1943,0.1947,0.1996,0.2006,0.2015,0,0,0,0,0,0,0.1558,0.1588,0.1606,0.1636,0.1666,0.1684,0.1715,0.1733,0.1776,0.1795,0.1806,0.1815,0.1876,0.1878,0.1852,0.1939,0.1906,0.1911,0.1941,0.1951,0.1959,0.195,0.1838,0,0,0,0,0,0.1566,0.1592,0.1619,0.1648,0.1667,0.1697,0.172,0.1743,0.1774,0.1796,0.1824,0.1858,0.189,0.1915,0.1939,0.1983,0.1986,0.2016,0.2024,0.2031,0.2029,0.2069,0.2079,0.1963,0.1963,0.1963,0,0,0.1575,0.1595,0.1612,0.165,0.1679,0.1707,0.1715,0.176,0.1792,0.1796,0.1862,0.1887,0.1908,0.196,0.1988,0.1972,0.2069,0.2036,0.2041,0.2036,0.2074,0.2085,0.2095,0.1965,0.1965,0.1964,0,0,0.1589,0.1624,0.1648,0.1674,0.1722,0.1739,0.176,0.1801,0.1835,0.1889,0.1906,0.1955,0.2003,0.2026,0.2041,0.2106,0.2107,0.2125,0.2161,0.2201,0.221,0.2219,0.2247,0.2257,0.2132,0.2132,0.2132,0,0.1601,0.163,0.166,0.1688,0.1715,0.1758,0.1788,0.1823,0.1879,0.191,0.1922,0.2011,0.2031,0.2089,0.2116,0.2123,0.2143,0.2123,0.221,0.2218,0.2226,0.2253,0.2263,0.2135,0.2135,0.2134,0.2134,0,0.162,0.1659,0.1678,0.1725,0.1758,0.1794,0.1841,0.1891,0.1938,0.1969,0.2051,0.2082,0.2134,0.2155,0.2156,0.2228,0.2225,0.2213,0.2182,0.2241,0.2266,0.2276,0.2139,0.2138,0.2137,0.2137,0,0,0.1602,0.1676,0.1687,0.1718,0.1783,0.1808,0.1874,0.1935,0.1986,0.2051,0.2114,0.2176,0.2205,0.2224,0.2244,0.228,0.2355,0.2277,0.2277,0.2298,0.2446,0.2305,0.2302,0.2365,0.2367,0.2369,0.2444,0,0.1611,0.1664,0.17,0.1761,0.1793,0.1852,0.1905,0.197,0.2033,0.2106,0.216,0.2229,0.2229,0.2271,0.2308,0.2344,0.2383,0.2335,0.2392,0.2393,0.2254,0.2309,0.2375,0.2452,0.2454,0.2456,0.2457,0,0.161,0.1649,0.1705,0.1783,0.1805,0.185,0.1946,0.2001,0.2103,0.2157,0.2234,0.2279,0.2357,0.2344,0.2435,0.241,0.2435,0.2453,0.2456,0.2307,0.2269,0.238,0.2475,0.2474,0.2472,0.2471,0.247,0,0.1568,0.165,0.1696,0.1723,0.1816,0.1863,0.1924,0.2022,0.2079,0.2201,0.2258,0.2346,0.2411,0.2455,0.2504,0.2484,0.2589,0.2561,0.2456,0.2447,0.2526,0.2516,0.2621,0.262,0.262,0.262,0.262,0,0.1541,0.1584,0.1689,0.1712,0.1778,0.1855,0.1934,0.2011,0.212,0.2183,0.2288,0.2343,0.2446,0.2514,0.2534,0.2526,0.262,0.2466,0.2457,0.255,0.2542,0.2534,0.2523,0.2623,0.2622,0.2622,0.2621,0,0.1478,0.1548,0.1608,0.1719,0.1758,0.1809,0.193,0.1984,0.2105,0.2192,0.2238,0.2372,0.2452,0.2534,0.2616,0.2555,0.2568,0.2545,0.2652,0.2648,0.239,0.2382,0.2417,0.2413,0.2409,0.2406,0.2403,0,0.1443,0.1471,0.1597,0.1637,0.1691,0.1778,0.1833,0.1963,0.2016,0.2182,0.2211,0.2345,0.2415,0.2416,0.2511,0.2545,0.2521,0.251,0.2426,0.2381,0.2371,0.2368,0.2364,0.2397,0.2397,0.2396,0.2395,0,0.1376,0.1438,0.149,0.1572,0.1641,0.1697,0.179,0.1811,0.1953,0.2083,0.2126,0.2171,0.2261,0.2317,0.2374,0.239,0.25,0.2471,0.2477,0.2398,0.2358,0.235,0.2351,0.2382,0.2384,0.2385,0.2386,0,0.1331,0.1352,0.1433,0.149,0.1571,0.1593,0.1649,0.1706,0.1769,0.1946,0.1955,0.2097,0.2225,0.2239,0.2287,0.2298,0.2256,0.2174,0.2195,0.2211,0.211,0.2027,0.1944,0,0,0,0,0,0.1278,0.1293,0.1343,0.1397,0.147,0.1512,0.161,0.1669,0.18,0.178,0.1858,0.1927,0.1988,0.2068,0.204,0.2212,0.2276,0.217,0.2195,0.2311,0.2326,0.2226,0,0,0,0,0,0,0.1243,0.1291,0.1307,0.1303,0.1322,0.1381,0.1435,0.1523,0.1516,0.1658,0.1703,0.1817,0.1912,0.1987,0.2005,0.2031,0.2008,0.2267,0.2262,0.2302,0.2316,0.2328,0.2231,0,0,0,0,0]},{"header":{"parameterUnit":"m.s-1","parameterCategory":2,"la1":30.2991,"la2":30.254,"lo1":-89.0895,"lo2":-89.0444,"dy":0.0017,"dx":0.0017,"nx":28,"ny":28,"refTime":"2025-12-17T03:00:00:Z","depth":"4","parameterNumber":3,"parameterNumberName":"V-component_of_CURRENTS"},"data":[0,0,0,0,0,0,0,0,0,0,0,0,0,0,0,0,0,0,0,0,0,0,0,0,0,0,0,0,0,0,0,0,0,0,0,0,0,0,0,0,0,0,0,0,0,0,0,0,0,0,0,0,0,0,0,0,0,0,-0.0065,-0.0066,0,-0.0116,-0.0117,-0.0118,-0.0152,-0.0152,-0.0152,-0.0152,-0.0225,-0.0227,-0.0229,0,0,0,0,0,0,0,0,0,0,0,0,0,-0.003,-0.003,-0.0065,-0.0066,-0.0066,-0.0116,-0.0117,-0.0118,-0.0152,-0.0152,-0.0152,-0.0152,-0.0225,-0.0227,-0.0229,0,0,0,0,0,0,0,0,0,0,0,0,0,-0.006,-0.003,-0.0065,-0.0089,-0.0091,-0.0116,-0.0117,-0.0118,-0.0152,-0.0152,-0.0152,-0.0152,-0.0224,-0.0227,-0.0229,-0.0242,0,0,-0.0238,-0.0239,0,0,0,0,0,0,0,0,-0.0058,-0.0061,-0.0085,-0.0087,-0.009,-0.0127,-0.0131,-0.016,-0.0152,-0.013,-0.0152,-0.0152,-0.0194,-0.0199,-0.0209,-0.0245,-0.0248,-0.0238,-0.024,-0.0241,-0.0242,0,0,0,0,0,0,0,-0.0056,-0.006,-0.0087,-0.0085,-0.0088,-0.0108,-0.0112,-0.0137,-0.0161,-0.0132,-0.0134,-0.0138,-0.0196,-0.0206,-0.0211,-0.025,-0.0238,-0.024,-0.0242,-0.0243,-0.0305,-0.0306,0,0,0,0,0,0,-0.0046,-0.0057,-0.0085,-0.0088,-0.0073,-0.0108,-0.0113,-0.0116,-0.016,-0.0167,-0.0138,-0.0139,-0.0202,-0.0208,-0.0214,-0.0226,-0.0241,-0.0243,-0.0245,-0.0305,-0.0306,-0.0306,0,0,0,0,0,0,-0.0045,-0.0048,-0.0083,-0.0073,-0.0079,-0.0108,-0.0111,-0.0117,-0.0129,-0.0165,-0.0172,-0.0145,-0.0202,-0.021,-0.0233,-0.0229,-0.0245,-0.0247,-0.0305,-0.0305,-0.0306,-0.0253,0,0,0,0,0,0,-0.0044,-0.0047,-0.0047,-0.0072,-0.0079,-0.0094,-0.0111,-0.0117,-0.0131,-0.0133,-0.0173,-0.018,-0.0203,-0.0229,-0.0236,-0.0233,-0.0249,-0.0305,-0.0305,-0.0306,-0.0254,-0.0251,-0.0248,0,0,0,0,0,-0.0042,-0.0038,-0.0047,-0.005,-0.0077,-0.0094,-0.0099,-0.0121,-0.0131,-0.0134,-0.0159,-0.0179,-0.0234,-0.0231,-0.0239,-0.0237,-0.0305,-0.0305,-0.0306,-0.0256,-0.0252,-0.0248,0,0,0,0,0,0,-0.0023,-0.0042,-0.0052,-0.0054,-0.0071,-0.0099,-0.0103,-0.0119,-0.0142,-0.0144,-0.0179,-0.0187,-0.0206,-0.023,-0.0226,-0.0256,-0.0273,-0.0275,-0.0233,-0.0229,-0.0226,-0.0209,-0.0251,0,0,0,0,0,-0.0018,-0.002,-0.0043,-0.0045,-0.0051,-0.0077,-0.0087,-0.0101,-0.0124,-0.0134,-0.0161,-0.0189,-0.0213,-0.0227,-0.0253,-0.0268,-0.0291,-0.0274,-0.027,-0.0267,-0.026,-0.029,-0.0288,-0.0306,-0.0306,-0.0306,0,0,-0.0011,-0.0022,-0.0023,-0.0041,-0.0055,-0.0057,-0.0084,-0.0094,-0.0096,-0.0138,-0.0149,-0.0179,-0.0215,-0.0232,-0.0243,-0.0251,-0.0275,-0.0268,-0.0264,-0.0259,-0.0289,-0.0288,-0.0286,-0.0306,-0.0306,-0.0306,0,0,0.0006,-0.0007,-0.0001,-0.0012,-0.0029,-0.0043,-0.0044,-0.007,-0.0081,-0.0097,-0.0127,-0.0151,-0.019,-0.0211,-0.0228,-0.0223,-0.0257,-0.0236,-0.0205,-0.0234,-0.0232,-0.0231,-0.0257,-0.0258,-0.0234,-0.0234,-0.0233,0,0.0017,0.002,-0.0003,0.0001,-0.0,-0.0033,-0.0024,-0.0041,-0.007,-0.0075,-0.0093,-0.0145,-0.0177,-0.0194,-0.0194,-0.0214,-0.0237,-0.0214,-0.0228,-0.0228,-0.0227,-0.0254,-0.0256,-0.0231,-0.0231,-0.0232,-0.0232,0,0.0037,0.0041,0.0044,0.0041,0.0035,0.0036,0.0016,0.0008,-0.0011,-0.003,-0.0052,-0.0097,-0.0126,-0.0144,-0.0168,-0.0182,-0.02,-0.0219,-0.0234,-0.0222,-0.0251,-0.0255,-0.0227,-0.0228,-0.0229,-0.023,0,0,0.0063,0.006,0.0062,0.0072,0.0058,0.0059,0.006,0.0052,0.0058,0.0018,0.0019,-0.0031,-0.0058,-0.0079,-0.0117,-0.0144,-0.0166,-0.0177,-0.018,-0.0195,-0.0228,-0.0226,-0.023,-0.0188,-0.0189,-0.0189,-0.0249,0,0.0088,0.0109,0.01,0.0124,0.0135,0.0115,0.0122,0.011,0.0091,0.0082,0.0032,0.0015,-0.0033,-0.0045,-0.008,-0.0143,-0.0173,-0.0148,-0.0244,-0.0247,-0.024,-0.0233,-0.019,-0.0251,-0.0252,-0.0253,-0.0253,0,0.0115,0.0126,0.0154,0.0174,0.0178,0.0187,0.0199,0.0199,0.0176,0.016,0.0128,0.0089,0.0045,0.0002,-0.0095,-0.0078,-0.0146,-0.0199,-0.0203,-0.0219,-0.0251,-0.0268,-0.026,-0.026,-0.0259,-0.0259,-0.0258,0,0.0147,0.0168,0.0195,0.0199,0.0211,0.0225,0.0231,0.0222,0.0236,0.0208,0.0212,0.0147,0.0121,0.0028,-0.0079,-0.0089,-0.0188,-0.0217,-0.0279,-0.028,-0.0288,-0.0288,-0.0284,-0.0284,-0.0284,-0.0284,-0.0284,0,0.0178,0.0201,0.0213,0.0227,0.0267,0.0262,0.0298,0.0293,0.0297,0.0319,0.0255,0.0255,0.0126,0.0056,-0.0055,-0.0171,-0.0172,-0.0268,-0.0293,-0.0265,-0.0262,-0.029,-0.029,-0.0286,-0.0286,-0.0285,-0.0285,0,0.0204,0.0211,0.0246,0.0269,0.0283,0.0309,0.0347,0.0373,0.0368,0.0394,0.0393,0.0338,0.0244,0.0115,-0.0033,-0.0128,-0.0247,-0.0291,-0.0241,-0.0263,-0.0328,-0.0325,-0.0366,-0.0366,-0.0366,-0.0366,-0.0367,0,0.0216,0.0235,0.0277,0.0304,0.0316,0.0354,0.0387,0.0403,0.0433,0.0445,0.0464,0.0398,0.0339,0.0145,-0.0007,-0.021,-0.0247,-0.0313,-0.0332,-0.0316,-0.0336,-0.0332,-0.0328,-0.0367,-0.0367,-0.0367,-0.0367,0,0.0238,0.0252,0.0281,0.0336,0.0377,0.0425,0.047,0.0502,0.0524,0.0531,0.0528,0.0431,0.0328,0.0162,0.0008,-0.0143,-0.0272,-0.0317,-0.0318,-0.0336,-0.0318,-0.0337,-0.0333,-0.0368,-0.0368,-0.0368,-0.0368,0,0.0254,0.0276,0.0314,0.0362,0.042,0.0472,0.0496,0.0534,0.0565,0.0582,0.0581,0.0468,0.0405,0.0197,0.0054,-0.009,-0.014,-0.0203,-0.0211,-0.0212,-0.0155,-0.0109,-0.011,0,0,0,0,0,0.0264,0.0288,0.0336,0.0388,0.0448,0.0477,0.0545,0.0565,0.0595,0.0605,0.0596,0.0501,0.0304,0.0222,0.0079,0.0024,-0.0181,-0.0153,-0.0261,-0.0374,-0.0373,-0.0334,0,0,0,0,0,0,0.027,0.0312,0.0333,0.0399,0.0436,0.05,0.0542,0.0566,0.0571,0.0587,0.0492,0.045,0.0262,0.0386,0.0072,0.0029,-0.0064,-0.0241,-0.0244,-0.0375,-0.0374,-0.0373,-0.0332,0,0,0,0,0]}]]